Location: Le Domaine
(47.0333°N, 76.5361°W)
Time: 18:35:34
(UTC-05:00)

Courier 1B Rocket - Pass Details

Date: 22 November 2019
Orbit: 920 x 1202 km, 28.2° (Epoch: 07 December)

Event Time Altitude Azimuth Distance (km) Brightness Sun altitude
Rises 17:22:21 0° 245° (WSW) 3,873 10.4 -9.8°
Reaches altitude 10° 17:26:46 10° 220° (SW) 2,979 8.5 -10.5°
Maximum altitude 17:30:01 13° 193° (SSW) 2,769 7.8 -11.0°
Drops below altitude 10° 17:33:20 10° 167° (SSE) 3,056 7.7 -11.5°
Sets 17:37:59 0° 143° (SE) 4,058 8.0 -12.3°
